| time (UTC) | temp F | wind direction | speed MPH | gust MPH | rain 1hr in | rain 24hr in | rain mn in | humidity % | barometer mb |
| 20260510222337 | 94 | 195 | 7.0 | 12.0 | 0.00 | 0.00 | 0.00 | 24 | 1012.2 |
| 20260510221825 | 94 | 243 | 2.0 | 7.0 | 0.00 | 0.00 | 0.00 | 25 | 1012.3 |
| 20260510221336 | 93 | 257 | 3.0 | 8.0 | 0.00 | 0.00 | 0.00 | 22 | 1012.4 |
| 20260510220826 | 94 | 214 | 3.0 | 11.0 | 0.00 | 0.00 | 0.00 | 22 | 1012.4 |
| 20260510220317 | 93 | 213 | 4.0 | 11.0 | 0.00 | 0.00 | 0.00 | 23 | 1012.5 |
| 20260510215828 | 93 | 237 | 4.0 | 10.0 | 0.00 | 0.00 | 0.00 | 23 | 1012.5 |
| 20260510215319 | 93 | 274 | 3.0 | 10.0 | 0.00 | 0.00 | 0.00 | 25 | 1012.5 |
| 20260510214810 | 93 | 236 | 2.0 | 8.0 | 0.00 | 0.00 | 0.00 | 23 | 1012.5 |
| 20260510214343 | 93 | 224 | 3.0 | 12.0 | 0.00 | 0.00 | 0.00 | 23 | 1012.6 |
| 20260510213817 | 93 | 231 | 3.0 | 11.0 | 0.00 | 0.00 | 0.00 | 22 | 1012.6 |
| 20260510213328 | 93 | 200 | 5.0 | 10.0 | 0.00 | 0.00 | 0.00 | 22 | 1012.7 |
| 20260510212819 | 92 | 234 | 4.0 | 8.0 | 0.00 | 0.00 | 0.00 | 23 | 1012.7 |
| 20260510212310 | 92 | 285 | 3.0 | 11.0 | 0.00 | 0.00 | 0.00 | 24 | 1012.8 |
| 20260510211822 | 92 | 276 | 4.0 | 11.0 | 0.00 | 0.00 | 0.00 | 24 | 1012.8 |
| 20260510211314 | 92 | 224 | 5.0 | 10.0 | 0.00 | 0.00 | 0.00 | 24 | 1012.9 |
| 20260510210825 | 92 | 205 | 4.0 | 11.0 | 0.00 | 0.00 | 0.00 | 24 | 1013.0 |
| 20260510210336 | 92 | 228 | 5.0 | 11.0 | 0.00 | 0.00 | 0.00 | 24 | 1013.0 |
| 20260510205826 | 92 | 205 | 4.0 | 10.0 | 0.00 | 0.00 | 0.00 | 25 | 1012.9 |
| 20260510205323 | 92 | 230 | 4.0 | 9.0 | 0.00 | 0.00 | 0.00 | 26 | 1013.0 |
| 20260510204833 | 92 | 199 | 3.0 | 11.0 | 0.00 | 0.00 | 0.00 | 26 | 1013.1 |
| 20260510204344 | 92 | 197 | 2.0 | 9.0 | 0.00 | 0.00 | 0.00 | 26 | 1013.0 |
| 20260510203835 | 92 | 211 | 6.0 | 9.0 | 0.00 | 0.00 | 0.00 | 25 | 1013.1 |
| 20260510203326 | 92 | 229 | 5.0 | 8.0 | 0.00 | 0.00 | 0.00 | 25 | 1013.1 |
| 20260510202816 | 91 | 200 | 4.0 | 8.0 | 0.00 | 0.00 | 0.00 | 25 | 1013.1 |
| 20260510202327 | 91 | 223 | 3.0 | 8.0 | 0.00 | 0.00 | 0.00 | 25 | 1013.2 |
| 20260510201818 | 91 | 219 | 3.0 | 10.0 | 0.00 | 0.00 | 0.00 | 25 | 1013.2 |
| 20260510201328 | 91 | 141 | 1.0 | 10.0 | 0.00 | 0.00 | 0.00 | 24 | 1013.3 |
| 20260510200819 | 92 | 143 | 3.0 | 5.0 | 0.00 | 0.00 | 0.00 | 25 | 1013.3 |
| 20260510200315 | 91 | 51 | 2.0 | 9.0 | 0.00 | 0.00 | 0.00 | 25 | 1013.3 |
| 20260510195827 | 91 | 280 | 3.0 | 9.0 | 0.00 | 0.00 | 0.00 | 25 | 1013.3 |
| 20260510195318 | 91 | 208 | 3.0 | 7.0 | 0.00 | 0.00 | 0.00 | 26 | 1013.4 |
| 20260510194830 | 90 | 268 | 2.0 | 6.0 | 0.00 | 0.00 | 0.00 | 25 | 1013.3 |
| 20260510194339 | 90 | 276 | 3.0 | 5.0 | 0.00 | 0.00 | 0.00 | 27 | 1013.4 |
| 20260510193831 | 89 | 229 | 2.0 | 6.0 | 0.00 | 0.00 | 0.00 | 25 | 1013.3 |
| 20260510193321 | 89 | 204 | 3.0 | 9.0 | 0.00 | 0.00 | 0.00 | 27 | 1013.3 |
| 20260510192811 | 89 | 250 | 3.0 | 9.0 | 0.00 | 0.00 | 0.00 | 25 | 1013.4 |
| 20260510192323 | 89 | 330 | 2.0 | 8.0 | 0.00 | 0.00 | 0.00 | 25 | 1013.4 |
| 20260510191813 | 89 | 204 | 4.0 | 8.0 | 0.00 | 0.00 | 0.00 | 25 | 1013.4 |
| 20260510191324 | 88 | 205 | 2.0 | 6.0 | 0.00 | 0.00 | 0.00 | 25 | 1013.4 |
| 20260510190840 | 88 | 219 | 2.0 | 6.0 | 0.00 | 0.00 | 0.00 | 25 | 1013.5 |
| 20260510190351 | 88 | 215 | 2.0 | 5.0 | 0.00 | 0.00 | 0.00 | 26 | 1013.5 |
| 20260510185822 | 88 | 205 | 2.0 | 9.0 | 0.00 | 0.00 | 0.00 | 27 | 1013.4 |
| 20260510185312 | 87 | 165 | 3.0 | 9.0 | 0.00 | 0.00 | 0.00 | 27 | 1013.4 |
| 20260510184822 | 87 | 233 | 3.0 | 7.0 | 0.00 | 0.00 | 0.00 | 28 | 1013.5 |
| 20260510184313 | 87 | 300 | 3.0 | 7.0 | 0.00 | 0.00 | 0.00 | 28 | 1013.5 |
| 20260510183825 | 86 | 151 | 1.0 | 6.0 | 0.00 | 0.00 | 0.00 | 29 | 1013.5 |
| 20260510183316 | 86 | 235 | 2.0 | 7.0 | 0.00 | 0.00 | 0.00 | 30 | 1013.5 |
| 20260510182828 | 85 | 197 | 2.0 | 7.0 | 0.00 | 0.00 | 0.00 | 30 | 1013.7 |
| 20260510182320 | 85 | 224 | 4.0 | 7.0 | 0.00 | 0.00 | 0.00 | 29 | 1013.7 |
| 20260510181814 | 85 | 219 | 3.0 | 7.0 | 0.00 | 0.00 | 0.00 | 29 | 1013.7 |
| 20260510181325 | 85 | 284 | 3.0 | 7.0 | 0.00 | 0.00 | 0.00 | 29 | 1013.6 |
| 20260510180836 | 85 | 257 | 1.0 | 5.0 | 0.00 | 0.00 | 0.00 | 30 | 1013.5 |
| 20260510180326 | 84 | 243 | 2.0 | 5.0 | 0.00 | 0.00 | 0.00 | 28 | 1013.6 |
| 20260510175839 | 83 | 278 | 1.0 | 9.0 | 0.00 | 0.00 | 0.00 | 29 | 1013.5 |
| 20260510175328 | 83 | 338 | 4.0 | 9.0 | 0.00 | 0.00 | 0.00 | 28 | 1013.4 |
| 20260510174819 | 83 | 217 | 2.0 | 4.0 | 0.00 | 0.00 | 0.00 | 30 | 1013.4 |
| 20260510174330 | 82 | 320 | 1.0 | 6.0 | 0.00 | 0.00 | 0.00 | 30 | 1013.4 |
| 20260510173820 | 82 | 307 | 4.0 | 6.0 | 0.00 | 0.00 | 0.00 | 30 | 1013.4 |
| 20260510173351 | 81 | 313 | 1.0 | 6.0 | 0.00 | 0.00 | 0.00 | 32 | 1013.5 |
| 20260510172825 | 81 | 288 | 2.0 | 5.0 | 0.00 | 0.00 | 0.00 | 31 | 1013.3 |
| 20260510172314 | 80 | 303 | 2.0 | 4.0 | 0.00 | 0.00 | 0.00 | 32 | 1013.4 |
| 20260510171827 | 80 | 244 | 1.0 | 4.0 | 0.00 | 0.00 | 0.00 | 34 | 1013.4 |
| 20260510171315 | 79 | 317 | 2.0 | 4.0 | 0.00 | 0.00 | 0.00 | 34 | 1013.5 |
| 20260510170826 | 79 | 255 | 0.0 | 3.0 | 0.00 | 0.00 | 0.00 | 35 | 1013.5 |
| 20260510170318 | 78 | 314 | 1.0 | 3.0 | 0.00 | 0.00 | 0.00 | 35 | 1013.4 |
| 20260510165828 | 78 | 274 | 0.0 | 3.0 | 0.00 | 0.00 | 0.00 | 36 | 1013.5 |
| 20260510165339 | 78 | 103 | 0.0 | 3.0 | 0.00 | 0.00 | 0.00 | 36 | 1013.5 |
| 20260510164850 | 77 | 269 | 1.0 | 3.0 | 0.00 | 0.00 | 0.00 | 37 | 1013.5 |
| 20260510164319 | 76 | 271 | 0.0 | 3.0 | 0.00 | 0.00 | 0.00 | 39 | 1013.5 |
| 20260510163851 | 75 | 338 | 0.0 | 2.0 | 0.00 | 0.00 | 0.00 | 40 | 1013.6 |
| 20260510163321 | 74 | 271 | 0.0 | 4.0 | 0.00 | 0.00 | 0.00 | 40 | 1013.5 |
| 20260510162815 | 74 | 263 | 1.0 | 4.0 | 0.00 | 0.00 | 0.00 | 41 | 1013.5 |
| 20260510162325 | 73 | 75 | 0.0 | 2.0 | 0.00 | 0.00 | 0.00 | 41 | 1013.7 |
| 20260510161817 | 73 | 306 | 1.0 | 3.0 | 0.00 | 0.00 | 0.00 | 40 | 1013.5 |
| 20260510161329 | 73 | 323 | 1.0 | 3.0 | 0.00 | 0.00 | 0.00 | 40 | 1013.5 |
| 20260510160820 | 73 | 263 | 0.0 | 0.0 | 0.00 | 0.00 | 0.00 | 40 | 1013.6 |
| 20260510160350 | 72 | 49 | 0.0 | 0.0 | 0.00 | 0.00 | 0.00 | 41 | 1013.5 |
| 20260510155819 | 72 | 45 | 0.0 | 0.0 | 0.00 | 0.00 | 0.00 | 43 | 1013.5 |
| 20260510155350 | 71 | 39 | 0.0 | 0.0 | 0.00 | 0.00 | 0.00 | 43 | 1013.5 |
| 20260510154821 | 70 | 328 | 0.0 | 0.0 | 0.00 | 0.00 | 0.00 | 45 | 1013.5 |
| 20260510154315 | 69 | 302 | 0.0 | 0.0 | 0.00 | 0.00 | 0.00 | 45 | 1013.5 |
| 20260510153826 | 69 | 352 | 0.0 | 0.0 | 0.00 | 0.00 | 0.00 | 47 | 1013.6 |
| 20260510153317 | 68 | 283 | 0.0 | 1.0 | 0.00 | 0.00 | 0.00 | 49 | 1013.6 |
| 20260510152828 | 68 | 283 | 0.0 | 2.0 | 0.00 | 0.00 | 0.00 | 49 | 1013.6 |
| 20260510152319 | 67 | 51 | 0.0 | 2.0 | 0.00 | 0.00 | 0.00 | 51 | 1013.7 |
| 20260510151851 | 66 | 39 | 1.0 | 3.0 | 0.00 | 0.00 | 0.00 | 52 | 1013.5 |
| 20260510151342 | 66 | 316 | 1.0 | 3.0 | 0.00 | 0.00 | 0.00 | 53 | 1013.6 |
| 20260510150831 | 66 | 309 | 2.0 | 3.0 | 0.00 | 0.00 | 0.00 | 52 | 1013.5 |
| 20260510150342 | 66 | 314 | 1.0 | 3.0 | 0.00 | 0.00 | 0.00 | 51 | 1013.7 |
| 20260510145812 | 66 | 262 | 0.0 | 0.0 | 0.00 | 0.00 | 0.00 | 51 | 1013.4 |
| 20260510145324 | 67 | 184 | 0.0 | 0.0 | 0.00 | 0.00 | 0.00 | 52 | 1013.5 |
| 20260510144819 | 67 | 184 | 0.0 | 0.0 | 0.00 | 0.00 | 0.00 | 50 | 1013.4 |
| 20260510144330 | 67 | 184 | 0.0 | 0.0 | 0.00 | 0.00 | 0.00 | 52 | 1013.4 |
| 20260510143821 | 65 | 184 | 0.0 | 0.0 | 0.00 | 0.00 | 0.00 | 56 | 1013.4 |
| 20260510143311 | 63 | 184 | 0.0 | 0.0 | 0.00 | 0.00 | 0.00 | 59 | 1013.4 |
| 20260510142843 | 61 | 184 | 0.0 | 0.0 | 0.00 | 0.00 | 0.00 | 61 | 1013.5 |
| 20260510142334 | 59 | 184 | 0.0 | 0.0 | 0.00 | 0.00 | 0.00 | 61 | 1013.5 |
| 20260510141825 | 58 | 184 | 0.0 | 0.0 | 0.00 | 0.00 | 0.00 | 64 | 1013.5 |
| 20260510141316 | 57 | 184 | 0.0 | 0.0 | 0.00 | 0.00 | 0.00 | 67 | 1013.5 |
| 20260510140828 | 57 | 184 | 0.0 | 0.0 | 0.00 | 0.00 | 0.00 | 69 | 1013.5 |
| 20260510140338 | 56 | 184 | 0.0 | 0.0 | 0.00 | 0.00 | 0.00 | 70 | 1013.5 |
| 20260510135828 | 55 | 184 | 0.0 | 0.0 | 0.00 | 0.00 | 0.00 | 72 | 1013.7 |
| 20260510135323 | 55 | 184 | 0.0 | 0.0 | 0.00 | 0.00 | 0.00 | 73 | 1013.5 |
| 20260510134836 | 54 | 184 | 0.0 | 0.0 | 0.00 | 0.00 | 0.00 | 74 | 1013.5 |
| 20260510134324 | 53 | 184 | 0.0 | 0.0 | 0.00 | 0.00 | 0.00 | 75 | 1013.4 |
| 20260510133816 | 53 | 184 | 0.0 | 0.0 | 0.00 | 0.00 | 0.00 | 74 | 1013.4 |
| 20260510133327 | 53 | 184 | 0.0 | 0.0 | 0.00 | 0.00 | 0.00 | 74 | 1013.2 |
| 20260510132819 | 53 | 184 | 0.0 | 0.0 | 0.00 | 0.00 | 0.00 | 73 | 1013.2 |
| 20260510132311 | 53 | 184 | 0.0 | 0.0 | 0.00 | 0.00 | 0.00 | 73 | 1013.1 |
| 20260510131822 | 53 | 184 | 0.0 | 0.0 | 0.00 | 0.00 | 0.00 | 73 | 1013.1 |
| 20260510131314 | 53 | 184 | 0.0 | 0.0 | 0.00 | 0.00 | 0.00 | 73 | 1012.9 |
| 20260510130825 | 53 | 184 | 0.0 | 0.0 | 0.00 | 0.00 | 0.00 | 74 | 1012.8 |
| 20260510130321 | 53 | 184 | 0.0 | 0.0 | 0.00 | 0.00 | 0.00 | 74 | 1012.7 |
| 20260510125831 | 53 | 184 | 0.0 | 0.0 | 0.00 | 0.00 | 0.00 | 74 | 1012.7 |
| 20260510125321 | 53 | 184 | 0.0 | 0.0 | 0.00 | 0.00 | 0.00 | 74 | 1012.7 |
| 20260510124812 | 53 | 184 | 0.0 | 0.0 | 0.00 | 0.00 | 0.00 | 74 | 1012.7 |
| 20260510124323 | 53 | 184 | 0.0 | 0.0 | 0.00 | 0.00 | 0.00 | 72 | 1012.7 |
| 20260510123814 | 53 | 184 | 0.0 | 0.0 | 0.00 | 0.00 | 0.00 | 72 | 1012.7 |
| 20260510123324 | 53 | 184 | 0.0 | 0.0 | 0.00 | 0.00 | 0.00 | 72 | 1012.7 |
| 20260510122836 | 53 | 184 | 0.0 | 0.0 | 0.00 | 0.00 | 0.00 | 72 | 1012.6 |
| 20260510122325 | 53 | 184 | 0.0 | 0.0 | 0.00 | 0.00 | 0.00 | 72 | 1012.7 |
| 20260510121817 | 53 | 184 | 0.0 | 0.0 | 0.00 | 0.00 | 0.00 | 71 | 1012.7 |
| 20260510121311 | 53 | 184 | 0.0 | 0.0 | 0.00 | 0.00 | 0.00 | 72 | 1012.8 |
| 20260510120823 | 53 | 184 | 0.0 | 0.0 | 0.00 | 0.00 | 0.00 | 72 | 1012.7 |
| 20260510120335 | 54 | 184 | 0.0 | 0.0 | 0.00 | 0.00 | 0.00 | 72 | 1012.7 |
| 20260510115825 | 53 | 184 | 0.0 | 0.0 | 0.00 | 0.00 | 0.00 | 74 | 1012.7 |
| 20260510115317 | 53 | 184 | 0.0 | 0.0 | 0.00 | 0.00 | 0.00 | 75 | 1012.7 |
| 20260510114828 | 53 | 184 | 0.0 | 0.0 | 0.00 | 0.00 | 0.00 | 73 | 1012.7 |
| 20260510114341 | 53 | 184 | 0.0 | 0.0 | 0.00 | 0.00 | 0.00 | 73 | 1012.7 |
| 20260510113851 | 53 | 184 | 0.0 | 0.0 | 0.00 | 0.00 | 0.00 | 73 | 1012.7 |
| 20260510113342 | 53 | 184 | 0.0 | 0.0 | 0.00 | 0.00 | 0.00 | 72 | 1012.8 |
| 20260510112812 | 54 | 184 | 0.0 | 0.0 | 0.00 | 0.00 | 0.00 | 71 | 1012.8 |
| 20260510112324 | 54 | 184 | 0.0 | 0.0 | 0.00 | 0.00 | 0.00 | 71 | 1012.8 |
| 20260510111818 | 54 | 184 | 0.0 | 0.0 | 0.00 | 0.00 | 0.00 | 71 | 1012.7 |
| 20260510111350 | 54 | 184 | 0.0 | 0.0 | 0.00 | 0.00 | 0.00 | 71 | 1012.8 |
| 20260510110820 | 54 | 184 | 0.0 | 0.0 | 0.00 | 0.00 | 0.00 | 72 | 1012.7 |
| 20260510110311 | 54 | 184 | 0.0 | 0.0 | 0.00 | 0.00 | 0.00 | 70 | 1012.8 |
| 20260510105823 | 54 | 184 | 0.0 | 0.0 | 0.00 | 0.00 | 0.00 | 69 | 1013.0 |
| 20260510105313 | 55 | 184 | 0.0 | 0.0 | 0.00 | 0.00 | 0.00 | 69 | 1012.9 |
| 20260510104824 | 55 | 184 | 0.0 | 0.0 | 0.00 | 0.00 | 0.00 | 69 | 1012.9 |
| 20260510104316 | 55 | 184 | 0.0 | 0.0 | 0.00 | 0.00 | 0.00 | 69 | 1012.8 |
| 20260510103826 | 55 | 184 | 0.0 | 0.0 | 0.00 | 0.00 | 0.00 | 69 | 1012.9 |
| 20260510103318 | 56 | 184 | 0.0 | 0.0 | 0.00 | 0.00 | 0.00 | 68 | 1012.8 |
| 20260510102833 | 56 | 184 | 0.0 | 0.0 | 0.00 | 0.00 | 0.00 | 68 | 1012.9 |
| 20260510102322 | 56 | 184 | 0.0 | 0.0 | 0.00 | 0.00 | 0.00 | 68 | 1012.8 |
| 20260510101813 | 56 | 184 | 0.0 | 0.0 | 0.00 | 0.00 | 0.00 | 67 | 1012.9 |
| 20260510101325 | 56 | 184 | 0.0 | 0.0 | 0.00 | 0.00 | 0.00 | 66 | 1012.9 |
| 20260510100816 | 56 | 184 | 0.0 | 0.0 | 0.00 | 0.00 | 0.00 | 66 | 1012.8 |
| 20260510100328 | 56 | 184 | 0.0 | 0.0 | 0.00 | 0.00 | 0.00 | 66 | 1012.9 |
| 20260510095818 | 56 | 184 | 0.0 | 0.0 | 0.00 | 0.00 | 0.00 | 66 | 1012.9 |
| 20260510095351 | 57 | 184 | 0.0 | 0.0 | 0.00 | 0.00 | 0.00 | 66 | 1013.0 |
| 20260510094820 | 57 | 184 | 0.0 | 0.0 | 0.00 | 0.00 | 0.00 | 66 | 1012.9 |
| 20260510094332 | 57 | 184 | 0.0 | 0.0 | 0.00 | 0.00 | 0.00 | 66 | 1012.9 |
| 20260510093827 | 57 | 184 | 0.0 | 0.0 | 0.00 | 0.00 | 0.00 | 66 | 1013.1 |
| 20260510093318 | 57 | 184 | 0.0 | 0.0 | 0.00 | 0.00 | 0.00 | 66 | 1013.0 |
| 20260510092830 | 57 | 184 | 0.0 | 0.0 | 0.00 | 0.00 | 0.00 | 66 | 1013.0 |
| 20260510092320 | 57 | 184 | 0.0 | 0.0 | 0.00 | 0.00 | 0.00 | 65 | 1013.1 |
| 20260510091811 | 57 | 184 | 0.0 | 0.0 | 0.00 | 0.00 | 0.00 | 65 | 1013.0 |
| 20260510091323 | 57 | 184 | 0.0 | 0.0 | 0.00 | 0.00 | 0.00 | 65 | 1013.1 |
| 20260510090815 | 57 | 184 | 0.0 | 0.0 | 0.00 | 0.00 | 0.00 | 64 | 1013.1 |
| 20260510090326 | 58 | 184 | 0.0 | 0.0 | 0.00 | 0.00 | 0.00 | 63 | 1013.2 |
| 20260510085822 | 58 | 184 | 0.0 | 0.0 | 0.00 | 0.00 | 0.00 | 63 | 1013.1 |
| 20260510085312 | 58 | 184 | 0.0 | 0.0 | 0.00 | 0.00 | 0.00 | 63 | 1013.2 |
| 20260510084824 | 58 | 184 | 0.0 | 0.0 | 0.00 | 0.00 | 0.00 | 62 | 1013.2 |
| 20260510084315 | 59 | 184 | 0.0 | 0.0 | 0.00 | 0.00 | 0.00 | 62 | 1013.2 |
| 20260510083826 | 59 | 184 | 0.0 | 0.0 | 0.00 | 0.00 | 0.00 | 62 | 1013.2 |
| 20260510083318 | 59 | 184 | 0.0 | 0.0 | 0.00 | 0.00 | 0.00 | 62 | 1013.2 |
| 20260510082829 | 59 | 184 | 0.0 | 0.0 | 0.00 | 0.00 | 0.00 | 62 | 1013.3 |
| 20260510082340 | 59 | 184 | 0.0 | 0.0 | 0.00 | 0.00 | 0.00 | 62 | 1013.3 |
| 20260510081830 | 59 | 184 | 0.0 | 0.0 | 0.00 | 0.00 | 0.00 | 61 | 1013.3 |
| 20260510081325 | 59 | 184 | 0.0 | 0.0 | 0.00 | 0.00 | 0.00 | 61 | 1013.4 |
| 20260510080815 | 59 | 184 | 0.0 | 0.0 | 0.00 | 0.00 | 0.00 | 60 | 1013.3 |
| 20260510080327 | 60 | 184 | 0.0 | 0.0 | 0.00 | 0.00 | 0.00 | 60 | 1013.4 |
| 20260510075818 | 60 | 184 | 0.0 | 0.0 | 0.00 | 0.00 | 0.00 | 61 | 1013.4 |
| 20260510075328 | 59 | 184 | 0.0 | 0.0 | 0.00 | 0.00 | 0.00 | 61 | 1013.5 |
| 20260510074821 | 59 | 184 | 0.0 | 0.0 | 0.00 | 0.00 | 0.00 | 61 | 1013.5 |
| 20260510074312 | 60 | 184 | 0.0 | 0.0 | 0.00 | 0.00 | 0.00 | 60 | 1013.5 |
| 20260510073823 | 60 | 184 | 0.0 | 0.0 | 0.00 | 0.00 | 0.00 | 60 | 1013.5 |
| 20260510073334 | 60 | 184 | 0.0 | 0.0 | 0.00 | 0.00 | 0.00 | 61 | 1013.7 |
| 20260510072844 | 60 | 184 | 0.0 | 0.0 | 0.00 | 0.00 | 0.00 | 61 | 1013.7 |
| 20260510072317 | 59 | 184 | 0.0 | 0.0 | 0.00 | 0.00 | 0.00 | 63 | 1013.8 |
| 20260510071828 | 59 | 184 | 0.0 | 0.0 | 0.00 | 0.00 | 0.00 | 62 | 1013.8 |
| 20260510071338 | 60 | 184 | 0.0 | 0.0 | 0.00 | 0.00 | 0.00 | 61 | 1013.8 |
| 20260510070829 | 60 | 184 | 0.0 | 0.0 | 0.00 | 0.00 | 0.00 | 61 | 1013.8 |
| 20260510070320 | 60 | 184 | 0.0 | 0.0 | 0.00 | 0.00 | 0.00 | 61 | 1013.8 |
| 20260510065851 | 61 | 184 | 0.0 | 0.0 | 0.00 | 0.00 | 0.00 | 61 | 1013.7 |
| 20260510065321 | 61 | 184 | 0.0 | 0.0 | 0.00 | 0.00 | 0.00 | 60 | 1013.8 |
| 20260510064812 | 61 | 184 | 0.0 | 0.0 | 0.00 | 0.00 | 0.00 | 60 | 1013.8 |
| 20260510064344 | 61 | 184 | 0.0 | 0.0 | 0.00 | 0.00 | 0.00 | 60 | 1013.8 |
| 20260510063815 | 61 | 184 | 0.0 | 0.0 | 0.00 | 0.00 | 0.00 | 59 | 1013.8 |
| 20260510063327 | 61 | 184 | 0.0 | 0.0 | 0.00 | 0.00 | 0.00 | 59 | 1013.8 |
| 20260510062821 | 61 | 184 | 0.0 | 0.0 | 0.00 | 0.00 | 0.00 | 58 | 1013.8 |
| 20260510062313 | 62 | 184 | 0.0 | 0.0 | 0.00 | 0.00 | 0.00 | 58 | 1013.8 |
| 20260510061823 | 62 | 184 | 0.0 | 0.0 | 0.00 | 0.00 | 0.00 | 58 | 1013.9 |
| 20260510061314 | 62 | 184 | 0.0 | 0.0 | 0.00 | 0.00 | 0.00 | 57 | 1013.8 |
| 20260510060826 | 63 | 184 | 0.0 | 0.0 | 0.00 | 0.00 | 0.00 | 57 | 1013.9 |
| 20260510060318 | 63 | 210 | 0.0 | 0.0 | 0.00 | 0.00 | 0.00 | 57 | 1013.8 |
| 20260510055848 | 63 | 210 | 0.0 | 0.0 | 0.00 | 0.00 | 0.00 | 56 | 1013.8 |
| 20260510055318 | 63 | 210 | 0.0 | 0.0 | 0.00 | 0.00 | 0.00 | 55 | 1013.8 |
| 20260510054829 | 64 | 210 | 0.0 | 0.0 | 0.00 | 0.00 | 0.00 | 55 | 1013.8 |
| 20260510054324 | 64 | 210 | 0.0 | 0.0 | 0.00 | 0.00 | 0.00 | 54 | 1013.8 |
| 20260510053815 | 64 | 210 | 0.0 | 0.0 | 0.00 | 0.00 | 0.00 | 54 | 1013.8 |
| 20260510053345 | 65 | 210 | 0.0 | 0.0 | 0.00 | 0.00 | 0.00 | 54 | 1013.8 |
| 20260510052813 | 65 | 210 | 0.0 | 0.0 | 0.00 | 0.00 | 0.00 | 53 | 1013.8 |
| 20260510052324 | 65 | 210 | 0.0 | 0.0 | 0.00 | 0.00 | 0.00 | 51 | 1013.8 |
| 20260510051814 | 66 | 210 | 0.0 | 0.0 | 0.00 | 0.00 | 0.00 | 49 | 1013.7 |
| 20260510051326 | 66 | 210 | 0.0 | 0.0 | 0.00 | 0.00 | 0.00 | 47 | 1013.8 |
| 20260510050818 | 67 | 210 | 0.0 | 0.0 | 0.00 | 0.00 | 0.00 | 47 | 1013.7 |
| 20260510050330 | 67 | 210 | 0.0 | 0.0 | 0.00 | 0.00 | 0.00 | 46 | 1013.8 |
| 20260510045820 | 67 | 210 | 0.0 | 0.0 | 0.00 | 0.00 | 0.00 | 45 | 1013.7 |
| 20260510045315 | 67 | 210 | 0.0 | 0.0 | 0.00 | 0.00 | 0.00 | 45 | 1013.7 |
| 20260510044824 | 67 | 210 | 0.0 | 0.0 | 0.00 | 0.00 | 0.00 | 45 | 1013.4 |
| 20260510044335 | 68 | 210 | 0.0 | 0.0 | 0.00 | 0.00 | 0.00 | 44 | 1013.4 |
| 20260510043825 | 68 | 210 | 0.0 | 0.0 | 0.00 | 0.00 | 0.00 | 44 | 1013.3 |
| 20260510043316 | 69 | 210 | 0.0 | 0.0 | 0.00 | 0.00 | 0.00 | 43 | 1013.2 |
| 20260510042826 | 69 | 210 | 0.0 | 0.0 | 0.00 | 0.00 | 0.00 | 42 | 1013.3 |
| 20260510042317 | 69 | 210 | 0.0 | 0.0 | 0.00 | 0.00 | 0.00 | 41 | 1013.3 |
| 20260510041829 | 70 | 210 | 0.0 | 0.0 | 0.00 | 0.00 | 0.00 | 41 | 1013.2 |
| 20260510041340 | 70 | 210 | 0.0 | 0.0 | 0.00 | 0.00 | 0.00 | 41 | 1013.2 |
| 20260510040814 | 70 | 210 | 0.0 | 0.0 | 0.00 | 0.00 | 0.00 | 42 | 1013.2 |
| 20260510040325 | 70 | 210 | 0.0 | 0.0 | 0.00 | 0.00 | 0.00 | 40 | 1013.1 |
| 20260510035836 | 71 | 210 | 0.0 | 0.0 | 0.00 | 0.00 | 0.00 | 40 | 1013.1 |
| 20260510035328 | 71 | 210 | 0.0 | 0.0 | 0.00 | 0.00 | 0.00 | 39 | 1013.0 |
| 20260510034820 | 72 | 210 | 0.0 | 0.0 | 0.00 | 0.00 | 0.00 | 39 | 1013.0 |
| 20260510034332 | 72 | 210 | 0.0 | 0.0 | 0.00 | 0.00 | 0.00 | 38 | 1012.9 |
| 20260510033821 | 72 | 210 | 0.0 | 1.0 | 0.00 | 0.00 | 0.00 | 38 | 1012.9 |
| 20260510033333 | 72 | 210 | 0.0 | 1.0 | 0.00 | 0.00 | 0.00 | 37 | 1012.9 |
| 20260510032823 | 72 | 208 | 0.0 | 0.0 | 0.00 | 0.00 | 0.00 | 37 | 1012.9 |
| 20260510032335 | 73 | 208 | 0.0 | 0.0 | 0.00 | 0.00 | 0.00 | 37 | 1012.8 |
| 20260510031845 | 73 | 208 | 0.0 | 0.0 | 0.00 | 0.00 | 0.00 | 36 | 1012.8 |
| 20260510031316 | 73 | 208 | 0.0 | 0.0 | 0.00 | 0.00 | 0.00 | 36 | 1012.7 |
| 20260510030830 | 73 | 208 | 0.0 | 0.0 | 0.00 | 0.00 | 0.00 | 36 | 1012.7 |
| 20260510030322 | 74 | 208 | 0.0 | 0.0 | 0.00 | 0.00 | 0.00 | 35 | 1012.6 |
| 20260510025814 | 74 | 208 | 0.0 | 0.0 | 0.00 | 0.00 | 0.00 | 34 | 1012.6 |
| 20260510025325 | 75 | 208 | 0.0 | 0.0 | 0.00 | 0.00 | 0.00 | 34 | 1012.6 |
| 20260510024836 | 75 | 208 | 0.0 | 0.0 | 0.00 | 0.00 | 0.00 | 34 | 1012.6 |
| 20260510024326 | 75 | 208 | 0.0 | 1.0 | 0.00 | 0.00 | 0.00 | 33 | 1012.6 |
| 20260510023819 | 76 | 208 | 0.0 | 2.0 | 0.00 | 0.00 | 0.00 | 33 | 1012.5 |
| 20260510023329 | 76 | 208 | 0.0 | 4.0 | 0.00 | 0.00 | 0.00 | 33 | 1012.5 |
| 20260510022820 | 77 | 238 | 0.0 | 3.0 | 0.00 | 0.00 | 0.00 | 33 | 1012.5 |
| 20260510022315 | 77 | 276 | 0.0 | 1.0 | 0.00 | 0.00 | 0.00 | 32 | 1012.4 |
| 20260510021827 | 78 | 276 | 0.0 | 2.0 | 0.00 | 0.00 | 0.00 | 32 | 1012.4 |
| 20260510021337 | 78 | 263 | 0.0 | 5.0 | 0.00 | 0.00 | 0.00 | 31 | 1012.3 |
| 20260510020827 | 79 | 216 | 2.0 | 5.0 | 0.00 | 0.00 | 0.00 | 31 | 1012.3 |
| 20260510020319 | 79 | 277 | 2.0 | 6.0 | 0.00 | 0.00 | 0.00 | 31 | 1012.2 |
| 20260510015830 | 79 | 220 | 3.0 | 9.0 | 0.00 | 0.00 | 0.00 | 31 | 1012.1 |
| 20260510015320 | 80 | 231 | 5.0 | 9.0 | 0.00 | 0.00 | 0.00 | 30 | 1012.1 |
| 20260510014812 | 81 | 251 | 4.0 | 8.0 | 0.00 | 0.00 | 0.00 | 29 | 1012.0 |
| 20260510014323 | 82 | 219 | 3.0 | 6.0 | 0.00 | 0.00 | 0.00 | 30 | 1011.9 |
| 20260510013814 | 82 | 233 | 2.0 | 11.0 | 0.00 | 0.00 | 0.00 | 29 | 1011.8 |
| 20260510013324 | 82 | 216 | 4.0 | 11.0 | 0.00 | 0.00 | 0.00 | 29 | 1011.8 |
| 20260510012820 | 83 | 204 | 6.0 | 9.0 | 0.00 | 0.00 | 0.00 | 29 | 1011.8 |
| 20260510012330 | 83 | 220 | 4.0 | 11.0 | 0.00 | 0.00 | 0.00 | 29 | 1011.7 |
| 20260510011822 | 84 | 222 | 5.0 | 11.0 | 0.00 | 0.00 | 0.00 | 29 | 1011.6 |
| 20260510011313 | 84 | 205 | 4.0 | 8.0 | 0.00 | 0.00 | 0.00 | 28 | 1011.6 |
| 20260510010845 | 85 | 245 | 2.0 | 9.0 | 0.00 | 0.00 | 0.00 | 29 | 1011.6 |
| 20260510010314 | 84 | 195 | 4.0 | 9.0 | 0.00 | 0.00 | 0.00 | 29 | 1011.6 |
| 20260510005826 | 85 | 242 | 4.0 | 10.0 | 0.00 | 0.00 | 0.00 | 30 | 1011.5 |
| 20260510005317 | 85 | 224 | 6.0 | 11.0 | 0.00 | 0.00 | 0.00 | 29 | 1011.4 |
| 20260510004829 | 85 | 260 | 6.0 | 11.0 | 0.00 | 0.00 | 0.00 | 28 | 1011.4 |
| 20260510004324 | 86 | 220 | 4.0 | 12.0 | 0.00 | 0.00 | 0.00 | 29 | 1011.3 |
| 20260510003816 | 86 | 241 | 4.0 | 12.0 | 0.00 | 0.00 | 0.00 | 28 | 1011.3 |
| 20260510003327 | 87 | 196 | 4.0 | 10.0 | 0.00 | 0.00 | 0.00 | 28 | 1011.3 |
| 20260510002819 | 87 | 200 | 4.0 | 9.0 | 0.00 | 0.00 | 0.00 | 27 | 1011.3 |
| 20260510002351 | 87 | 303 | 3.0 | 8.0 | 0.00 | 0.00 | 0.00 | 27 | 1011.3 |
| 20260510001821 | 87 | 300 | 4.0 | 11.0 | 0.00 | 0.00 | 0.00 | 27 | 1011.3 |
| 20260510001312 | 87 | 275 | 3.0 | 11.0 | 0.00 | 0.00 | 0.00 | 27 | 1011.3 |
| 20260510000823 | 87 | 197 | 5.0 | 13.0 | 0.00 | 0.00 | 0.00 | 27 | 1011.3 |
| 20260510000315 | 88 | 209 | 5.0 | 13.0 | 0.00 | 0.00 | 0.00 | 27 | 1011.2 |
| 20260509235826 | 88 | 172 | 6.0 | 12.0 | 0.00 | 0.00 | 0.00 | 26 | 1011.2 |
| 20260509235321 | 88 | 214 | 6.0 | 12.0 | 0.00 | 0.00 | 0.00 | 26 | 1011.1 |
| 20260509234813 | 88 | 224 | 6.0 | 12.0 | 0.00 | 0.00 | 0.00 | 26 | 1011.1 |
| 20260509234324 | 88 | 211 | 6.0 | 12.0 | 0.00 | 0.00 | 0.00 | 26 | 1011.1 |
| 20260509233814 | 88 | 218 | 8.0 | 12.0 | 0.00 | 0.00 | 0.00 | 26 | 1011.1 |
| 20260509233325 | 89 | 217 | 7.0 | 12.0 | 0.00 | 0.00 | 0.00 | 26 | 1011.2 |
| 20260509232815 | 89 | 223 | 6.0 | 11.0 | 0.00 | 0.00 | 0.00 | 26 | 1011.1 |
| 20260509232327 | 89 | 221 | 7.0 | 11.0 | 0.00 | 0.00 | 0.00 | 25 | 1011.1 |
| 20260509231818 | 89 | 231 | 3.0 | 9.0 | 0.00 | 0.00 | 0.00 | 25 | 1011.2 |
| 20260509231330 | 89 | 242 | 3.0 | 12.0 | 0.00 | 0.00 | 0.00 | 24 | 1011.1 |
| 20260509230826 | 90 | 233 | 6.0 | 12.0 | 0.00 | 0.00 | 0.00 | 24 | 1011.2 |
| 20260509230318 | 90 | 181 | 4.0 | 11.0 | 0.00 | 0.00 | 0.00 | 24 | 1011.2 |
| 20260509225828 | 90 | 221 | 5.0 | 12.0 | 0.00 | 0.00 | 0.00 | 23 | 1011.2 |
| 20260509225319 | 91 | 176 | 3.0 | 12.0 | 0.00 | 0.00 | 0.00 | 23 | 1011.2 |
| 20260509224811 | 90 | 158 | 4.0 | 11.0 | 0.00 | 0.00 | 0.00 | 23 | 1011.1 |
| 20260509223820 | 91 | 283 | 4.0 | 11.0 | 0.00 | 0.00 | 0.00 | 22 | 1011.2 |
| 20260509223330 | 91 | 229 | 3.0 | 9.0 | 0.00 | 0.00 | 0.00 | 21 | 1011.2 |
| 20260509222821 | 91 | 179 | 1.0 | 5.0 | 0.00 | 0.00 | 0.00 | 22 | 1011.3 |